Lid_Strength_Index
2 2 2 2 2 2 2 2 1 2 1 3 4 5 4 4 4 4 5 3 -0 -1 -1 0 1 2 2 3 3 3 11 11 9 9 8 5 6 4 3 5 4 4 4 3 2
2 2 2 2 3 3 2 2 2 2 1 1 3 5 5 4 4 5 0 -3 -1 -1 1 2 3 3 4 5 4 6 10 8 6 6 6 6 6 5 6 6 6 5 3 2 2
3 2 2 3 3 3 3 2 2 2 2 1 3 4 4 3 4 3 -3 -1 -1 -1 0 1 2 3 6 4 5 6 8 6 6 5 5 6 6 5 6 8 6 6 4 3 3
3 3 3 3 3 3 3 3 3 2 2 2 1 3 4 2 7 1 -1 -1 -1 -1 1 2 3 7 7 7 5 7 6 5 5 5 5 6 5 6 5 6 4 4 3 3 3
3 3 3 3 3 3 3 3 3 2 2 1 1 2 4 6 4 -1 -1 -1 -0 0 2 3 4 5 6 6 5 6 6 5 5 5 5 5 6 6 6 4 3 3 3 3 3
3 3 3 3 3 3 3 3 3 3 2 1 0 2 4 7 -0 -1 -0 -0 0 1 2 2 3 3 5 5 5 5 5 5 5 5 5 6 6 5 5 4 4 3 4 3 3
3 3 3 3 3 3 3 3 3 3 2 1 -0 0 5 6 1 -1 -0 0 0 1 2 2 2 4 4 5 4 5 6 5 5 5 6 5 8 8 5 4 5 5 4 4 3
3 3 3 3 3 4 4 4 3 2 2 0 -0 0 6 4 -1 0 -0 1 0 0 1 1 1 3 4 3 5 5 6 8 6 6 5 6 10 7 4 5 5 5 5 4 3
3 4 3 4 4 4 4 4 3 2 0 -0 1 2 4 1 2 0 0 2 1 1 1 1 2 4 4 6 7 6 8 7 7 5 6 7 9 6 5 5 6 5 5 4 4
3 3 4 4 4 4 4 2 1 1 0 -0 1 3 2 5 1 1 0 1 2 2 3 3 4 5 5 6 9 8 8 7 7 6 6 7 8 7 5 5 6 6 5 5 5
3 3 4 4 4 5 4 1 3 3 2 3 3 3 3 1 0 2 1 2 2 4 6 4 6 7 6 6 6 6 7 7 7 6 7 7 8 7 6 6 6 6 5 5 4
3 4 4 5 5 5 3 2 2 1 4 2 2 2 2 1 3 2 1 4 4 6 4 5 7 5 5 5 6 6 7 7 7 6 7 7 8 7 6 6 5 5 5 5 4
3 4 5 6 6 5 2 1 -0 0 4 3 2 3 2 2 3 3 2 3 4 5 5 6 6 5 5 6 7 6 7 7 7 6 6 8 9 9 7 5 5 4 4 4 4
4 4 5 5 7 0 1 -0 -1 -0 6 5 4 3 2 2 4 2 1 3 4 6 5 6 5 6 6 6 6 7 6 6 7 7 9 6 18 10 8 8 6 5 5 4 4
4 5 6 7 1 2 1 0 -0 1 11 5 4 1 2 4 3 3 1 3 5 5 5 6 6 6 6 6 5 7 5 6 6 7 7 7 10 9 8 9 7 6 5 4 3
4 5 6 4 3 1 1 0 1 7 11 6 4 5 5 4 4 3 3 2 3 5 5 5 4 5 5 5 5 5 6 6 6 7 10 8 11 15 10 8 7 5 5 4 3
5 7 6 1 1 1 -0 1 7 9 5 7 6 5 5 5 5 5 5 5 6 8 7 6 6 5 4 6 5 5 7 10 10 10 13 7 10 8 6 6 6 5 5 4 3
6 7 4 2 0 0 1 5 10 7 7 5 5 5 7 5 5 5 5 6 5 6 7 8 9 6 5 6 6 6 7 10 12 11 10 7 13 10 5 4 4 4 4 3 3
6 0 0 0 0 0 3 8 8 6 5 6 5 7 7 6 6 5 6 6 5 5 7 7 8 5 5 5 5 7 8 6 8 8 11 10 8 6 5 5 5 4 4 4 3
1 1 1 -0 -0 1 5 8 6 5 5 5 7 6 7 7 7 6 6 5 6 5 4 6 8 6 5 5 5 6 5 8 8 12 12 11 11 11 9 7 5 5 5 4 3
1 3 1 -1 -0 3 7 6 5 4 4 5 6 7 6 7 6 6 7 5 5 5 4 5 6 7 5 7 7 6 7 7 7 8 11 11 13 8 7 6 5 5 4 4 3
2 4 0 -0 5 4 6 5 9 4 4 4 5 5 6 6 6 6 7 6 4 4 6 5 6 8 8 5 5 5 6 6 9 10 8 9 10 8 8 5 4 5 4 4 3
4 3 0 1 6 6 4 5 4 5 5 5 5 5 5 6 7 6 6 4 4 5 5 5 7 9 8 7 5 7 6 6 6 7 9 10 12 5 4 5 4 5 4 4 4
3 5 3 2 3 5 5 5 5 4 4 4 5 4 5 6 5 6 6 5 4 4 3 4 6 7 9 8 6 8 7 6 7 9 9 8 9 7 6 6 5 4 4 4 4
2 4 4 6 4 4 4 5 6 6 4 4 5 5 5 7 6 6 5 5 4 6 4 5 7 6 7 7 6 7 7 7 7 7 8 8 7 6 5 5 5 4 4 4 4
5 5 4 4 4 5 7 5 6 5 5 6 6 5 5 6 6 6 5 5 6 4 5 4 7 6 7 6 7 7 7 6 7 7 7 7 7 4 4 4 5 4 4 4 4
2 2 4 6 5 5 5 5 6 5 5 4 5 6 6 5 4 4 4 4 4 5 5 5 6 7 9 7 7 9 7 7 6 6 6 8 6 4 5 5 5 4 4 4 4